Flag for Canada Weather past 2 weeks in Langley, British Columbia, Canada

Now
58 °F

Cool.


Feels Like: 59 °F
Forecast: 47 / 64 °F
Wind: 3 mph from North

Location: P. Meadows Coastal Station

Current Time: Mar 26, 2015 at 7:52:25 PM

Latest Report: Mar 26, 2015 at 7:00 PM


Visibility: N/A

Pressure: 30.16 "Hg

Humidity: 81%

Dew point: 53 °F

Location of LangleyLocation

Historic Weather in Langley — Graph

°F

Langley temperature yesterday

Maximum temperature yesterday: 48 °F (at 11:00 PM)
Minimum temperature yesterday: 44 °F (at 9:00 AM)
Average temperature yesterday: 46 °F

Past Weeks' High & Low Weather Summary

 TemperatureHumidityPressure
High64 °F (Mar 13, 3:00 PM)100% (Mar 19, 7:00 AM)30.40 "Hg (Mar 19, 7:00 AM)
Low38 °F (Mar 17, 2:00 AM)30% (Mar 16, 5:00 PM)29.68 "Hg (Mar 14, 9:00 AM)
Average49 °F85%30.07 "Hg
* Reported Mar 11 6:00 PM — Mar 26 6:00 PM, Langley, Weather by CustomWeather, © 2015

Note: Actual official high and low records may vary slightly from our data, if they occured in-between our weather recording intervals... More about our weather records

Advertising

Langley weather history for previous 24 hours

 ConditionsComfort  
Time TempWeatherWind HumidityBarometerVisibility
6:00 PM
Thu, Mar 26
61 °FCool.7 mph75%30.16 "HgN/A
5:00 PM62 °FCool.8 mph71%30.18 "HgN/A
4:00 PM64 °FMild.8 mph65%30.20 "HgN/A
3:00 PM64 °FMild.7 mph70%30.22 "HgN/A
2:00 PM63 °FMild.6 mph73%30.24 "HgN/A
1:00 PM62 °FCool.8 mph74%30.25 "HgN/A
12:00 PM59 °FCool.6 mph81%30.26 "HgN/A
11:00 AM56 °FCool.6 mph91%30.27 "HgN/A
10:00 AM54 °FCool.1 mph94%30.27 "HgN/A
9:00 AM51 °FCool.1 mph97%30.27 "HgN/A
8:00 AM49 °FCool.2 mph98%30.27 "HgN/A
7:00 AM49 °FCool.1 mph98%30.27 "HgN/A
6:00 AM48 °FCool.No wind97%30.27 "HgN/A
5:00 AM49 °FCool.No wind97%30.27 "HgN/A
4:00 AM49 °FCool.1 mph97%30.28 "HgN/A
3:00 AM49 °FCool.1 mph97%30.28 "HgN/A
2:00 AM48 °FCool.1 mph97%30.28 "HgN/A
1:00 AM48 °FCool.1 mph97%30.27 "HgN/A
12:00 AM49 °FCool.1 mph97%30.27 "HgN/A
11:00 PM
Wed, Mar 25
48 °FCool.1 mph97%30.26 "HgN/A
10:00 PM48 °FCool.7 mph91%30.25 "HgN/A
9:00 PM48 °FCool.7 mph97%30.24 "HgN/A
8:00 PM48 °FCool.7 mph97%30.23 "HgN/A
7:00 PM47 °FCool.9 mph97%30.23 "HgN/A
Weather by CustomWeather, © 2015

See weather overviewHow to use our weather pages